1511816400.43,60572,8.56,72944.3,-17.45,-49.39,-49.39,0,*61
1511816401.69,60573,8.56,72944.3,-17.47,-49.47,-49.47,0,*62
1511816402.93,60574,8.63,72948.3,-17.47,-49.47,-49.33,0,*66
1511816404.2,60575,8.56,72946.3,-17.45,-49.25,-49.19,0,*69
1511816405.43,60576,8.63,72950.0,-17.45,-49.25,-49.25,0,*65
1511816406.68,60577,8.63,72948.3,-17.47,-49.47,-49.33,0,*65
1511816407.96,60578,8.63,72950.0,-17.45,-49.61,-49.61,0,*6B
1511816409.2,60579,8.63,72948.3,-17.47,-49.25,-49.11,0,*6F
1511816410.46,60580,8.56,72944.8,-17.45,-48.97,-48.77,0,*62
1511816411.75,60581,8.63,72946.0,-17.45,-49.39,-49.19,0,*6F
1511816413.04,60582,8.56,72944.5,-17.45,-49.61,-49.61,0,*6E
1511816414.32,60583,8.63,72950.5,-17.45,-49.47,-49.47,0,*6F
1511816415.54,60584,8.63,72946.5,-17.43,-49.05,-48.97,0,*64
1511816416.81,60585,8.63,72946.8,-17.45,-49.39,-49.25,0,*64
1511816418.09,60586,8.63,72948.3,-17.45,-49.39,-49.61,0,*67
1511816419.36,60587,8.63,72948.0,-17.45,-49.81,-49.61,0,*65
1511816420.64,60588,8.63,72946.0,-17.45,-49.61,-49.61,0,*64
1511816421.94,60589,8.63,72950.0,-17.45,-49.47,-49.39,0,*6C
1511816423.17,60590,8.56,72944.8,-17.45,-49.05,-48.97,0,*67
1511816424.44,60591,8.56,72946.5,-17.45,-48.97,-48.77,0,*62
1511816425.7,60592,8.56,72946.5,-17.45,-49.25,-49.19,0,*60
1511816426.97,60593,8.63,72948.5,-17.43,-49.47,-49.39,0,*61
1511816428.23,60594,8.63,72948.5,-17.39,-49.53,-49.53,0,*62
1511816429.49,60595,8.63,72948.0,-17.39,-49.61,-49.53,0,*62
1511816430.72,60596,8.63,72950.0,-17.43,-49.89,-49.81,0,*65
1511816432.0,60597,8.63,72950.3,-17.45,-49.47,-49.47,0,*6A
1511816433.28,60598,8.56,72944.5,-17.43,-49.39,-49.39,0,*63
1511816434.5,60599,8.56,72946.3,-17.43,-49.25,-49.05,0,*60
1511816435.75,60600,8.63,72948.3,-17.43,-48.77,-48.63,0,*64
1511816437.02,60601,8.63,72948.8,-17.43,-49.19,-49.19,0,*60
1511816438.26,60602,8.56,72944.8,-17.39,-49.75,-49.61,0,*6B
1511816439.49,60603,8.56,72946.5,-17.43,-49.81,-49.81,0,*62
1511816440.7,60604,8.63,72948.3,-17.43,-49.67,-49.67,0,*65
1511816441.92,60605,8.56,72946.8,-17.43,-49.67,-49.67,0,*64
1511816443.19,60606,8.56,72944.5,-17.43,-49.61,-49.47,0,*63
1511816444.43,60607,8.63,72946.0,-17.43,-49.25,-49.39,0,*6B
1511816445.71,60608,8.63,72946.3,-17.43,-49.19,-49.39,0,*6B
1511816446.97,60609,8.63,72946.8,-17.43,-49.61,-49.61,0,*68
1511816448.24,60610,8.63,72946.8,-17.43,-49.39,-49.47,0,*69
1511816449.46,60611,8.56,72944.0,-17.43,-49.05,-49.05,0,*61
1511816450.73,60612,8.56,72946.5,-17.43,-49.19,-49.19,0,*62
1511816451.99,60613,8.63,72948.3,-17.43,-49.61,-49.61,0,*63
1511816453.22,60614,8.63,72946.0,-17.43,-49.81,-49.67,0,*6C
1511816454.45,60615,8.63,72950.0,-17.43,-49.89,-49.81,0,*6D
1511816455.68,60616,8.63,72948.5,-17.43,-49.89,-49.81,0,*6E
1511816456.93,60617,8.63,72946.3,-17.43,-49.67,-49.39,0,*6C
1511816458.2,60618,8.56,72946.5,-17.43,-49.39,-49.47,0,*61
1511816459.42,60619,8.63,72946.3,-17.43,-49.81,-49.67,0,*61
1511816460.64,60620,8.63,72946.3,-17.43,-49.67,-49.67,0,*63
1511816461.9,60621,8.63,72948.0,-17.43,-49.61,-49.61,0,*62
1511816463.17,60622,8.56,72944.0,-17.43,-49.39,-49.47,0,*68
1511816464.38,60623,8.56,72946.5,-17.43,-49.25,-49.25,0,*60
1511816465.65,60624,8.63,72944.5,-17.43,-49.19,-49.19,0,*67
1511816466.88,60625,8.63,72946.8,-17.43,-49.05,-49.05,0,*66
1511816468.1,60626,8.56,72944.5,-17.43,-49.05,-49.05,0,*65
1511816469.33,60627,8.63,72948.3,-17.43,-49.05,-49.05,0,*64
1511816470.55,60628,8.63,72944.5,-17.43,-49.05,-49.05,0,*6B
1511816471.76,60629,8.63,72946.0,-17.39,-48.97,-48.97,0,*67
1511816473.0,60630,8.56,72946.8,-17.43,-49.25,-49.19,0,*6D
1511816474.25,60631,8.56,72946.0,-17.39,-49.53,-49.53,0,*6E
1511816475.5,60632,8.63,72944.3,-17.43,-49.67,-49.61,0,*66
1511816476.75,60633,8.63,72950.5,-17.39,-49.61,-49.53,0,*6D
1511816478.01,60634,8.56,72944.0,-17.39,-49.61,-49.61,0,*6B
1511816479.27,60635,8.63,72948.0,-17.39,-49.39,-49.53,0,*66
1511816480.51,60636,8.56,72946.0,-17.43,-49.67,-49.61,0,*62
1511816481.75,60637,8.63,72946.0,-17.43,-49.67,-49.61,0,*63
1511816483.02,60638,8.56,72944.5,-17.43,-49.61,-49.47,0,*6E
1511816484.29,60639,8.63,72944.3,-17.43,-49.39,-49.39,0,*6B
1511816485.54,60640,8.56,72942.5,-17.43,-49.25,-49.39,0,*68
1511816486.8,60641,8.63,72944.3,-17.39,-49.47,-49.61,0,*6D
1511816488.01,60642,8.63,72944.3,-17.39,-49.75,-49.67,0,*69
1511816489.24,60643,8.63,72946.5,-17.43,-49.61,-49.67,0,*60
1511816490.51,60644,8.63,72948.5,-17.43,-49.47,-49.61,0,*65
1511816491.75,60645,8.63,72946.5,-17.43,-49.67,-49.61,0,*66
1511816493.03,60646,8.63,72944.3,-17.43,-49.47,-49.39,0,*6A
1511816494.27,60647,8.56,72944.8,-17.43,-49.25,-49.39,0,*6F
1511816495.49,60648,8.56,72940.5,-17.43,-49.25,-49.25,0,*6D
1511816496.73,60649,8.56,72942.0,-17.43,-49.19,-49.25,0,*63
1511816498.01,60650,8.56,72946.3,-17.43,-49.39,-49.39,0,*64
1511816499.27,60651,8.63,72944.5,-17.43,-49.61,-49.61,0,*65
1511816500.54,60652,8.56,72942.8,-17.43,-49.47,-49.47,0,*66
1511816501.78,60653,8.63,72946.8,-17.39,-49.75,-49.53,0,*6E
1511816503.0,60654,8.63,72944.8,-17.43,-49.89,-49.67,0,*60
1511816504.21,60655,8.56,72944.3,-17.39,-49.75,-49.75,0,*6C
1511816505.43,60656,8.56,72944.8,-17.43,-49.67,-49.67,0,*62
1511816506.67,60657,8.56,72946.8,-17.43,-49.05,-49.19,0,*6E
1511816507.91,60658,8.63,72948.8,-17.43,-49.25,-49.19,0,*63
1511816509.18,60659,8.56,72944.5,-17.43,-49.39,-49.47,0,*64
1511816510.4,60660,8.56,72946.3,-17.39,-49.81,-49.81,0,*6A
1511816511.63,60661,8.63,72944.8,-17.43,-49.89,-49.81,0,*6E
1511816512.9,60662,8.56,72942.5,-17.43,-49.61,-49.47,0,*61
1511816514.14,60663,8.56,72946.0,-17.43,-49.25,-49.19,0,*6B
1511816515.38,60664,8.63,72944.3,-17.43,-49.67,-49.61,0,*65
1511816516.6,60665,8.63,72948.8,-17.43,-49.81,-49.67,0,*6A
1511816517.83,60666,8.63,72948.8,-17.43,-49.81,-49.81,0,*61
1511816519.06,60667,8.56,72942.5,-17.43,-49.89,-49.89,0,*60
1511816520.35,60668,8.56,72942.3,-17.45,-49.39,-49.47,0,*60
1511816521.57,60669,8.56,72940.8,-17.43,-49.25,-49.05,0,*6C
1511816522.84,60670,8.56,72946.3,-17.43,-49.47,-49.39,0,*6F
1511816524.11,60671,8.63,72946.8,-17.43,-49.47,-49.47,0,*67
1511816525.38,60672,8.63,72946.5,-17.43,-49.61,-49.47,0,*60
1511816526.65,60673,8.63,72946.3,-17.43,-49.47,-49.39,0,*6C
1511816527.92,60674,8.63,72946.3,-17.43,-49.61,-49.39,0,*6F
1511816529.21,60675,8.63,72948.5,-17.45,-49.47,-49.39,0,*6C
1511816530.46,60676,8.56,72942.8,-17.45,-49.97,-49.89,0,*69
1511816531.71,60677,8.56,72940.5,-17.45,-49.97,-49.89,0,*68
1511816532.94,60678,8.63,72946.3,-17.45,-49.67,-49.67,0,*68
1511816534.18,60679,8.56,72944.8,-17.45,-49.25,-49.25,0,*69
1511816535.43,60680,8.56,72940.5,-17.45,-49.81,-49.81,0,*6F
1511816536.65,60681,8.56,72946.0,-17.47,-49.75,-49.81,0,*67
1511816537.89,60682,8.56,72944.5,-17.45,-49.89,-49.67,0,*6D
1511816539.15,60683,8.63,72944.8,-17.47,-49.53,-49.47,0,*6B
1511816540.42,60684,8.56,72942.5,-17.45,-49.81,-49.61,0,*65
1511816541.67,60685,8.56,72946.0,-17.45,-49.81,-49.81,0,*6A
1511816542.92,60686,8.56,72944.8,-17.45,-49.89,-49.81,0,*61
1511816544.16,60687,8.56,72944.0,-17.47,-49.39,-49.25,0,*67
1511816545.44,60688,8.56,72946.8,-17.45,-49.61,-49.61,0,*67
1511816546.66,60689,8.56,72946.0,-17.47,-49.75,-49.75,0,*64
1511816547.87,60690,8.56,72942.8,-17.47,-49.75,-49.89,0,*6F
1511816549.09,60691,8.63,72946.5,-17.47,-49.75,-49.89,0,*6E
1511816550.31,60692,8.63,72944.5,-17.47,-49.89,-49.75,0,*6D
1511816551.53,60693,8.63,72944.0,-17.47,-49.89,-49.89,0,*6F
1511816552.75,60694,8.63,72944.5,-17.47,-49.97,-49.89,0,*67
1511816553.96,60695,8.56,72942.3,-17.47,-49.67,-49.67,0,*69
1511816555.18,60696,8.63,72946.8,-17.47,-49.97,-49.75,0,*66
1511816556.41,60697,8.63,72946.3,-17.47,-49.47,-49.67,0,*69
1511816557.7,60698,8.56,72944.0,-17.45,-49.61,-49.61,0,*66
1511816558.91,60699,8.56,72944.5,-17.47,-49.67,-49.67,0,*65
1511816560.12,60700,8.63,72944.5,-17.47,-49.67,-49.67,0,*64
1511816561.37,60701,8.56,72944.5,-17.45,-49.67,-49.81,0,*6F
1511816562.58,60702,8.63,72946.3,-17.47,-49.75,-49.75,0,*66
1511816563.79,60703,8.56,72944.5,-17.47,-49.33,-49.25,0,*60
1511816565.05,60704,8.63,72944.8,-17.47,-49.47,-49.53,0,*65
1511816566.26,60705,8.56,72942.0,-17.47,-49.75,-49.67,0,*62
1511816567.5,60706,8.63,72948.3,-17.49,-49.53,-49.67,0,*6B
1511816568.71,60707,8.63,72946.5,-17.49,-49.89,-49.67,0,*6D
1511816569.94,60708,8.56,72942.8,-17.49,-49.89,-49.89,0,*62
1511816571.16,60709,8.63,72944.3,-17.49,-49.97,-49.97,0,*63
1511816572.38,60710,8.56,72944.0,-17.49,-49.67,-49.75,0,*68
1511816573.59,60711,8.56,72942.5,-17.49,-49.75,-49.67,0,*69
1511816574.8,60712,8.63,72948.3,-17.49,-49.75,-49.75,0,*69
1511816576.04,60713,8.56,72944.5,-17.49,-49.67,-49.47,0,*6A
1511816577.28,60714,8.56,72940.8,-17.49,-49.53,-49.67,0,*68
1511816578.49,60715,8.63,72944.3,-17.49,-49.67,-49.67,0,*6E
1511816579.73,60716,8.63,72944.0,-17.49,-49.67,-49.53,0,*6A
1511816580.94,60717,8.63,72944.0,-17.49,-49.67,-49.67,0,*6C
1511816582.2,60718,8.63,72944.3,-17.49,-49.53,-49.53,0,*63
1511816583.41,60719,8.63,72944.3,-17.49,-49.75,-49.67,0,*61
1511816584.66,60720,8.63,72944.3,-17.51,-49.89,-49.75,0,*62
1511816585.88,60721,8.56,72942.0,-17.49,-49.89,-49.75,0,*6A
1511816587.09,60722,8.56,72940.8,-17.49,-49.67,-49.67,0,*6A
1511816588.34,60723,8.63,72946.8,-17.51,-49.97,-49.89,0,*6D
1511816589.57,60724,8.63,72946.3,-17.49,-49.89,-49.97,0,*63
1511816590.83,60725,8.63,72946.0,-17.49,-49.53,-49.53,0,*6D
1511816592.07,60726,8.63,72944.3,-17.51,-49.89,-49.67,0,*67
1511816593.28,60727,8.56,72946.0,-17.49,-49.67,-49.67,0,*6F
1511816594.49,60728,8.63,72946.8,-17.49,-49.67,-49.67,0,*60
1511816595.73,60729,8.63,72944.0,-17.51,-49.67,-49.67,0,*68
1511816596.98,60730,8.63,72944.8,-17.51,-49.97,-49.89,0,*6F
1511816598.23,60731,8.63,72950.8,-17.51,-49.97,-49.89,0,*6E
1511816599.45,60732,8.63,72948.8,-17.49,-49.89,-49.89,0,*6B
1511816600.7,60733,8.63,72946.8,-17.51,-49.97,-49.75,0,*6F
1511816601.94,60734,8.56,72944.5,-17.51,-49.75,-49.75,0,*64
1511816603.19,60735,8.63,72946.8,-17.51,-49.89,-49.75,0,*66
1511816604.43,60736,8.56,72944.8,-17.51,-49.89,-49.75,0,*65
1511816605.68,60737,8.63,72944.0,-17.51,-49.05,-49.05,0,*67
1511816606.91,60738,8.56,72946.0,-17.49,-49.75,-49.53,0,*65
1511816608.2,60739,8.63,72948.3,-17.51,-49.53,-49.53,0,*69
1511816609.45,60740,8.56,72946.0,-17.51,-49.89,-49.75,0,*64
1511816610.69,60741,8.63,72944.3,-17.51,-49.75,-49.89,0,*65
1511816611.91,60742,8.56,72944.0,-17.49,-49.89,-49.89,0,*6C
1511816613.14,60743,8.63,72948.3,-17.49,-49.89,-49.89,0,*6D
1511816614.39,60744,8.56,72942.8,-17.51,-49.97,-49.89,0,*6C
1511816615.6,60745,8.63,72944.3,-17.49,-49.89,-49.75,0,*68
1511816616.85,60746,8.56,72946.8,-17.51,-49.89,-49.75,0,*62
1511816618.09,60747,8.63,72944.0,-17.51,-49.89,-49.75,0,*63
1511816619.33,60748,8.63,72944.5,-17.51,-49.75,-49.75,0,*6F
1511816620.56,60749,8.63,72944.3,-17.53,-49.97,-49.97,0,*6C
1511816621.78,60750,8.63,72946.8,-17.53,-49.81,-49.97,0,*63
1511816623.0,60751,8.63,72946.5,-17.53,-49.97,-49.97,0,*65
1511816624.25,60752,8.56,72942.8,-17.51,-49.67,-49.75,0,*67
1511816625.51,60753,8.56,72946.0,-17.51,-49.53,-49.67,0,*62
1511816626.75,60754,8.56,72944.3,-17.51,-49.67,-49.67,0,*62
1511816627.99,60755,8.56,72944.0,-17.51,-49.89,-49.67,0,*63
1511816629.24,60756,8.63,72944.8,-17.51,-49.89,-49.89,0,*60
1511816630.52,60757,8.56,72946.5,-17.51,-50.03,-49.97,0,*64
1511816631.73,60758,8.56,72944.8,-17.53,-49.75,-49.75,0,*6C
1511816633.0,60759,8.63,72946.5,-17.53,-50.11,-50.03,0,*6E
1511816634.27,60760,8.63,72944.3,-17.53,-50.11,-50.25,0,*60
1511816635.52,60761,8.63,72946.0,-17.53,-50.03,-49.97,0,*63
1511816636.73,60762,8.63,72944.8,-17.53,-49.75,-49.81,0,*6E
1511816637.99,60763,8.63,72946.0,-17.53,-49.53,-49.53,0,*64
1511816639.23,60764,8.56,72942.8,-17.53,-49.75,-49.61,0,*66
1511816640.44,60765,8.56,72944.8,-17.53,-49.75,-49.75,0,*62
1511816641.65,60766,8.63,72944.5,-17.53,-49.97,-49.75,0,*6D
1511816642.95,60767,8.63,72946.5,-17.55,-50.11,-50.03,0,*65
1511816644.17,60768,8.63,72944.5,-17.53,-49.89,-49.89,0,*6F
1511816645.38,60769,8.56,72946.3,-17.53,-49.67,-49.67,0,*6E
1511816646.63,60770,8.63,72944.8,-17.53,-50.03,-49.81,0,*64
1511816647.83,60771,8.63,72946.5,-17.53,-49.67,-49.67,0,*67
1511816649.06,60772,8.63,72946.3,-17.53,-49.81,-49.81,0,*64
1511816650.34,60773,8.63,72946.8,-17.55,-49.61,-49.47,0,*67
1511816651.6,60774,8.63,72944.5,-17.53,-49.53,-49.61,0,*63
1511816652.87,60775,8.56,72944.8,-17.55,-50.03,-49.81,0,*67
1511816654.15,60776,8.63,72944.8,-17.55,-50.03,-49.81,0,*64
1511816655.39,60777,8.63,72944.5,-17.55,-49.81,-49.67,0,*6F
1511816656.64,60778,8.63,72946.5,-17.53,-50.03,-49.81,0,*6C
1511816657.89,60779,8.56,72946.0,-17.55,-49.89,-49.89,0,*69
1511816659.15,60780,8.56,72946.8,-17.55,-49.67,-49.61,0,*69
1511816660.39,60781,8.63,72948.3,-17.55,-49.67,-49.81,0,*66
1511816661.64,60782,8.56,72944.0,-17.55,-49.67,-49.81,0,*65
1511816662.89,60783,8.56,72944.5,-17.53,-50.03,-49.81,0,*68
1511816664.17,60784,8.63,72948.0,-17.55,-50.17,-50.11,0,*6D
1511816665.4,60785,8.63,72950.0,-17.53,-49.81,-49.81,0,*6C
1511816666.66,60786,8.56,72944.8,-17.55,-49.67,-49.61,0,*6F
1511816667.9,60787,8.63,72948.0,-17.53,-49.39,-49.33,0,*64
1511816669.15,60788,8.63,72948.3,-17.55,-49.81,-49.81,0,*67
1511816670.4,60789,8.63,72948.0,-17.55,-49.89,-49.89,0,*66
1511816671.61,60790,8.63,72950.3,-17.53,-49.75,-49.75,0,*68
1511816672.86,60791,8.63,72948.3,-17.53,-50.03,-49.81,0,*6B
1511816674.1,60792,8.63,72946.8,-17.55,-49.67,-49.81,0,*64
1511816675.37,60793,8.56,72946.3,-17.55,-49.67,-49.61,0,*6B
1511816676.62,60794,8.63,72948.5,-17.55,-49.81,-49.81,0,*6A
1511816677.89,60795,8.63,72948.3,-17.55,-50.11,-49.89,0,*62
1511816679.14,60796,8.63,72948.5,-17.55,-49.81,-49.81,0,*68
1511816680.36,60797,8.63,72950.3,-17.57,-49.67,-49.81,0,*63
1511816681.6,60798,8.56,72946.8,-17.55,-49.67,-49.81,0,*6E
1511816682.9,60799,8.63,72946.0,-17.55,-49.47,-49.39,0,*6E
1511816684.18,60800,8.63,72948.3,-17.55,-49.61,-49.47,0,*6C
1511816685.43,60801,8.63,72946.0,-17.55,-49.81,-49.81,0,*69
1511816686.69,60802,8.63,72948.3,-17.55,-49.67,-49.61,0,*6C
1511816687.95,60803,8.56,72944.0,-17.53,-49.53,-49.53,0,*6D
1511816689.19,60804,8.63,72946.5,-17.51,-49.67,-49.67,0,*68
1511816690.43,60805,8.56,72942.8,-17.55,-49.81,-49.67,0,*65
1511816691.71,60806,8.56,72944.5,-17.55,-49.61,-49.61,0,*6E
1511816692.92,60807,8.56,72946.3,-17.53,-49.67,-49.81,0,*61
1511816694.17,60808,8.56,72946.3,-17.55,-49.81,-49.75,0,*6B
1511816695.42,60809,8.63,72948.3,-17.55,-49.81,-49.81,0,*61
1511816696.65,60810,8.56,72944.0,-17.53,-49.61,-49.75,0,*6A
1511816697.9,60811,8.63,72948.0,-17.53,-49.61,-49.61,0,*6E
1511816699.15,60812,8.63,72946.0,-17.55,-49.67,-49.81,0,*63
1511816700.38,60813,8.56,72946.5,-17.55,-49.67,-49.67,0,*6A
1511816701.65,60814,8.63,72946.8,-17.55,-49.39,-49.25,0,*60
1511816702.89,60815,8.63,72948.0,-17.55,-49.67,-49.81,0,*64
1511816704.15,60816,8.63,72948.8,-17.55,-49.53,-49.67,0,*68
1511816705.42,60817,8.63,72948.5,-17.53,-49.39,-49.39,0,*68
1511816706.68,60818,8.56,72944.3,-17.55,-49.19,-48.97,0,*66
1511816707.97,60819,8.63,72948.3,-17.55,-49.47,-49.61,0,*64
1511816709.22,60820,8.56,72944.0,-17.53,-49.61,-49.61,0,*6C
1511816710.51,60821,8.63,72950.0,-17.55,-49.61,-49.39,0,*66
1511816711.79,60822,8.63,72946.0,-17.55,-49.47,-49.47,0,*68
1511816713.08,60823,8.63,72948.8,-17.55,-49.47,-49.47,0,*69
1511816714.32,60824,8.63,72946.3,-17.55,-49.25,-49.25,0,*6E
1511816715.55,60825,8.63,72950.5,-17.53,-49.11,-48.97,0,*66
1511816716.76,60826,8.63,72948.5,-17.53,-49.75,-49.75,0,*6A
1511816718.03,60827,8.63,72948.0,-17.53,-49.39,-49.39,0,*6B
1511816719.24,60828,8.63,72946.8,-17.53,-49.75,-49.75,0,*64
1511816720.46,60829,8.56,72944.5,-17.53,-49.97,-49.81,0,*62
1511816721.71,60830,8.63,72946.0,-17.53,-50.03,-49.81,0,*6F
1511816722.94,60831,8.63,72948.0,-17.53,-49.97,-49.81,0,*6B
1511816724.18,60832,8.63,72944.3,-17.55,-49.89,-49.89,0,*69
1511816725.4,60833,8.63,72950.0,-17.53,-49.81,-49.81,0,*6E
1511816726.7,60834,8.56,72944.5,-17.55,-50.11,-50.11,0,*6F
1511816727.92,60835,8.63,72948.5,-17.53,-49.81,-49.81,0,*68
1511816729.16,60836,8.63,72946.5,-17.55,-49.67,-49.81,0,*65
1511816730.41,60837,8.63,72950.0,-17.55,-49.89,-49.81,0,*64
1511816731.65,60838,8.63,72950.0,-17.53,-49.33,-49.39,0,*6F
1511816732.9,60839,8.63,72950.0,-17.53,-49.33,-49.39,0,*6E
1511816734.16,60840,8.63,72946.8,-17.55,-49.81,-49.61,0,*62
1511816735.42,60841,8.63,72946.5,-17.53,-49.61,-49.61,0,*6B
1511816736.67,60842,8.56,72946.5,-17.53,-49.47,-49.47,0,*68
1511816737.89,60843,8.56,72946.8,-17.53,-49.75,-49.81,0,*62
1511816739.12,60844,8.63,72944.3,-17.53,-49.61,-49.75,0,*6B
1511816740.34,60845,8.63,72946.8,-17.53,-49.67,-49.81,0,*67
1511816741.59,60846,8.56,72944.5,-17.53,-49.61,-49.61,0,*6C
1511816742.81,60847,8.63,72946.3,-17.53,-49.75,-49.75,0,*6D
1511816744.06,60848,8.63,72946.3,-17.55,-49.61,-49.67,0,*62
1511816745.32,60849,8.63,72946.5,-17.55,-49.67,-49.61,0,*63
1511816746.6,60850,8.56,72944.8,-17.55,-49.61,-49.61,0,*6D
1511816747.87,60851,8.63,72948.0,-17.53,-49.53,-49.39,0,*66
1511816749.1,60852,8.63,72948.0,-17.53,-49.61,-49.75,0,*6C
1511816750.38,60853,8.56,72946.5,-17.55,-49.61,-49.61,0,*6E
1511816751.64,60854,8.56,72944.5,-17.53,-49.53,-49.53,0,*6F
1511816752.89,60855,8.63,72946.5,-17.55,-49.61,-49.67,0,*6E
1511816754.19,60856,8.63,72948.3,-17.55,-50.11,-50.03,0,*68
1511816755.4,60857,8.63,72948.3,-17.53,-49.81,-49.75,0,*67
1511816756.67,60858,8.56,72944.8,-17.55,-49.39,-49.25,0,*68
1511816757.9,60859,8.56,72944.0,-17.55,-49.67,-49.67,0,*64
1511816759.15,60860,8.63,72946.8,-17.55,-49.89,-49.81,0,*66
1511816760.37,60861,8.56,72942.5,-17.53,-49.81,-49.75,0,*62
1511816761.61,60862,8.56,72946.5,-17.55,-49.89,-49.89,0,*6C
1511816762.86,60863,8.63,72946.5,-17.55,-49.81,-49.81,0,*6D
1511816764.1,60864,8.63,72946.8,-17.55,-49.67,-49.67,0,*6A
1511816765.38,60865,8.56,72944.8,-17.55,-49.61,-49.47,0,*6F
1511816766.63,60866,8.63,72950.3,-17.55,-49.67,-49.81,0,*60
1511816767.88,60867,8.63,72948.5,-17.55,-49.89,-49.81,0,*61
1511816769.14,60868,8.63,72948.0,-17.55,-49.67,-49.61,0,*60
1511816770.42,60869,8.63,72948.0,-17.55,-49.47,-49.47,0,*67
1511816771.7,60870,8.63,72950.8,-17.55,-50.03,-49.81,0,*6D
1511816772.92,60871,8.63,72948.8,-17.53,-49.97,-49.75,0,*64
1511816774.13,60872,8.56,72944.8,-17.53,-49.75,-49.75,0,*6B
1511816775.36,60873,8.63,72948.5,-17.55,-49.67,-49.67,0,*6C
1511816776.61,60874,8.56,72946.3,-17.55,-49.81,-49.81,0,*6B
1511816777.86,60875,8.63,72948.5,-17.55,-49.67,-49.81,0,*62
1511816779.12,60876,8.63,72948.8,-17.55,-49.67,-49.61,0,*6F
1511816780.36,60877,8.56,72944.8,-17.55,-49.81,-49.67,0,*60
1511816781.61,60878,8.63,72946.5,-17.55,-49.89,-49.89,0,*67
1511816782.85,60879,8.56,72944.5,-17.55,-49.81,-49.81,0,*66
1511816784.08,60880,8.63,72944.5,-17.57,-49.89,-49.81,0,*6A
1511816785.3,60881,8.63,72948.0,-17.57,-49.89,-49.89,0,*63
1511816786.53,60882,8.63,72946.3,-17.57,-49.81,-49.81,0,*60
1511816787.75,60883,8.63,72946.3,-17.57,-49.81,-49.89,0,*69
1511816788.98,60884,8.63,72946.3,-17.57,-49.89,-49.89,0,*66
1511816790.23,60885,8.63,72946.5,-17.57,-50.03,-49.89,0,*6D
1511816791.48,60886,8.63,72946.8,-17.61,-50.17,-49.97,0,*61
1511816792.73,60887,8.56,72944.5,-17.57,-50.03,-49.89,0,*6F
1511816793.98,60888,8.63,72948.5,-17.61,-50.11,-49.97,0,*69
1511816795.2,60889,8.56,72946.0,-17.61,-49.89,-49.89,0,*6E
1511816796.47,60890,8.56,72946.8,-17.61,-50.11,-50.11,0,*66
1511816797.74,60891,8.63,72944.3,-17.61,-50.11,-50.11,0,*67
1511816799.01,60892,8.56,72944.0,-17.57,-49.47,-49.47,0,*61
1511816800.27,60893,8.63,72948.0,-17.57,-49.47,-49.47,0,*60
1511816801.53,60894,8.56,72946.8,-17.57,-49.47,-49.47,0,*67
1511816802.76,60895,8.63,72948.0,-17.57,-49.81,-49.81,0,*66
1511816804.02,60896,8.63,72946.5,-17.57,-49.61,-49.39,0,*68
1511816805.29,60897,8.63,72946.5,-17.57,-49.39,-49.47,0,*6D
1511816806.51,60898,8.63,72946.5,-17.57,-49.67,-49.81,0,*63
1511816807.74,60899,8.63,72944.3,-17.61,-49.89,-49.89,0,*6F
1511816808.97,60900,8.63,72946.5,-17.57,-49.47,-49.67,0,*69
1511816810.24,60901,8.63,72948.5,-17.61,-49.47,-49.47,0,*6F
1511816811.47,60902,8.63,72946.5,-17.57,-49.25,-49.19,0,*66
1511816812.7,60903,8.63,72948.0,-17.61,-49.33,-49.33,0,*6D
1511816813.93,60904,8.56,72946.3,-17.57,-49.89,-49.81,0,*67
1511816815.15,60905,8.63,72948.0,-17.57,-49.89,-49.81,0,*66
1511816816.37,60906,8.63,72946.0,-17.57,-49.81,-49.67,0,*65
1511816817.61,60907,8.56,72946.8,-17.57,-49.39,-49.25,0,*61
1511816818.87,60908,8.63,72944.3,-17.57,-50.03,-49.81,0,*61
1511816820.09,60909,8.56,72944.0,-17.57,-49.89,-49.89,0,*62
1511816821.34,60910,8.56,72944.0,-17.61,-50.11,-49.97,0,*69
1511816822.6,60911,8.63,72948.0,-17.61,-50.03,-49.97,0,*6B
1511816823.82,60912,8.63,72948.5,-17.57,-49.81,-49.81,0,*68
1511816825.07,60913,8.56,72946.8,-17.57,-50.03,-49.89,0,*63
1511816826.32,60914,8.63,72946.3,-17.61,-50.11,-49.89,0,*62
1511816827.55,60915,8.63,72944.8,-17.61,-49.89,-49.97,0,*65
1511816828.79,60916,8.56,72944.0,-17.61,-49.53,-49.67,0,*6E
1511816830.03,60917,8.63,72944.5,-17.57,-49.39,-49.25,0,*60
1511816831.31,60918,8.63,72946.0,-17.57,-49.39,-49.39,0,*62
1511816832.52,60919,8.63,72944.8,-17.61,-49.75,-49.75,0,*66
1511816833.77,60920,8.63,72944.5,-17.61,-50.25,-50.39,0,*61
1511816835.03,60921,8.63,72944.5,-17.57,-50.11,-50.11,0,*68
1511816836.26,60922,8.63,72946.3,-17.57,-49.81,-49.81,0,*6B
1511816837.49,60923,8.63,72950.0,-17.61,-49.89,-49.89,0,*6F
1511816838.74,60924,8.63,72950.0,-17.61,-50.11,-49.97,0,*6E
1511816840.0,60925,8.63,72944.8,-17.61,-50.25,-50.17,0,*68
1511816841.23,60926,8.63,72946.8,-17.61,-50.39,-50.39,0,*6A
1511816842.52,60927,8.63,72946.8,-17.63,-50.25,-50.17,0,*68
1511816843.78,60928,8.63,72944.3,-17.63,-49.97,-49.97,0,*66
1511816845.05,60929,8.63,72944.5,-17.63,-50.11,-49.97,0,*61
1511816846.3,60930,8.63,72944.0,-17.63,-49.97,-49.89,0,*60
1511816847.58,60931,8.63,72944.0,-17.63,-50.11,-49.97,0,*68
1511816848.83,60932,8.63,72950.0,-17.63,-49.89,-49.75,0,*6E
1511816850.09,60933,8.63,72948.8,-17.61,-49.47,-49.53,0,*6B
1511816851.33,60934,8.63,72944.0,-17.63,-49.67,-49.75,0,*68
1511816852.62,60935,8.63,72944.0,-17.63,-50.17,-50.11,0,*6C
1511816853.91,60936,8.63,72946.3,-17.63,-50.25,-50.17,0,*68
1511816855.18,60937,8.63,72946.5,-17.63,-50.17,-49.97,0,*68
1511816856.42,60938,8.56,72942.5,-17.63,-49.67,-49.67,0,*67
1511816857.68,60939,8.63,72946.0,-17.63,-49.53,-49.67,0,*61
1511816858.92,60940,8.63,72946.5,-17.63,-49.75,-49.75,0,*68
1511816860.16,60941,8.56,72944.3,-17.63,-49.33,-49.25,0,*6E
1511816861.45,60942,8.56,72942.5,-17.63,-49.53,-49.47,0,*6F
1511816862.7,60943,8.63,72944.5,-17.63,-49.33,-49.25,0,*6C
1511816863.94,60944,8.63,72946.3,-17.63,-49.89,-49.75,0,*6F
1511816865.19,60945,8.63,72946.8,-17.63,-49.97,-49.89,0,*62
1511816866.44,60946,8.63,72948.5,-17.63,-49.89,-49.89,0,*6E
1511816867.72,60947,8.63,72946.3,-17.63,-50.11,-49.97,0,*69
1511816868.96,60948,8.63,72944.0,-17.63,-49.75,-49.89,0,*63
1511816870.21,60949,8.63,72944.3,-17.63,-49.89,-49.75,0,*62
1511816871.46,60950,8.56,72944.0,-17.63,-49.89,-49.89,0,*69
1511816872.71,60951,8.63,72944.0,-17.63,-49.97,-49.89,0,*67
1511816873.96,60952,8.63,72946.5,-17.63,-49.97,-49.89,0,*64
1511816875.21,60953,8.63,72946.0,-17.63,-49.97,-49.89,0,*65
1511816876.46,60954,8.63,72944.5,-17.63,-49.97,-49.75,0,*61
1511816877.71,60955,8.63,72948.5,-17.63,-49.97,-49.97,0,*6C
1511816878.96,60956,8.63,72946.8,-17.63,-49.97,-49.97,0,*6F
1511816880.21,60957,8.63,72946.8,-17.63,-49.89,-49.75,0,*6D
1511816881.45,60958,8.63,72944.5,-17.63,-49.75,-49.75,0,*61
1511816882.72,60959,8.63,72944.8,-17.63,-49.67,-49.47,0,*62
1511816884.01,60960,8.63,72946.3,-17.63,-49.47,-49.47,0,*6A
1511816885.25,60961,8.63,72944.0,-17.63,-49.75,-49.67,0,*68
1511816886.49,60962,8.63,72946.8,-17.63,-49.25,-49.05,0,*6A
1511816887.76,60963,8.56,72942.0,-17.63,-49.47,-49.33,0,*6A
1511816889.04,60964,8.63,72946.5,-17.63,-50.11,-49.97,0,*68
1511816890.31,60965,8.63,72944.3,-17.63,-50.11,-49.89,0,*66
1511816891.59,60966,8.63,72944.0,-17.63,-50.11,-49.89,0,*65
1511816892.84,60967,8.63,72944.8,-17.63,-49.97,-49.97,0,*6D
1511816894.08,60968,8.56,72944.3,-17.63,-49.75,-49.67,0,*61
1511816895.32,60969,8.63,72944.3,-17.63,-49.05,-49.05,0,*63
1511816896.61,60970,8.63,72944.0,-17.63,-49.47,-49.47,0,*6B
1511816897.88,60971,8.63,72946.5,-17.63,-49.67,-49.47,0,*68